Location: Berville
(49.1893°N, 2.0748°E)
Time: 22:36:42
(UTC+00:00)

Daily predictions for brighter satellites

Satellite Brightness Start Highest point End
(mag) Time Altitude Azimuth Time Altitude Azimuth Time Altitude Azimuth
Cosmos 1656 3.8 16:24:30 10° NNW 16:30:04 86° WSW 16:35:40 10° SSE
Cosmos 1933 4.4 16:30:33 10° SE 16:33:54 25° E 16:37:15 10° NNE
USA 229 DEB 3.9 16:27:28 10° NW 16:34:46 80° NE 16:42:34 10° SE
USA 229 3.9 16:27:34 10° NW 16:34:51 80° NE 16:42:39 10° SE
Cosmos 1464 Rocket 4.1 16:29:28 10° S 16:35:50 80° E 16:42:14 10° NNE
Cosmos 1937 Rocket 3.8 16:31:16 10° NNW 16:36:24 45° ENE 16:41:29 10° SE
Cosmos 1500 Rocket 3.7 16:35:04 10° N 16:39:28 56° ENE 16:43:48 10° SSE
Cosmos 1666 4.4 16:37:41 10° NE 16:39:31 13° ENE 16:41:20 10° E
SL-16 R/B 4.5 16:34:53 10° N 16:39:33 23° NW 16:44:15 10° WSW
Spot 1 4.4 16:35:08 10° NNE 16:39:47 62° ESE 16:44:41 10° S
Nadezhda 4 Rocket 4.0 16:34:56 10° N 16:41:18 78° E 16:47:37 10° SSE
SL-24 R/B - RUBIN 2 4.0 16:37:20 10° NNW 16:41:44 40° NE 16:45:52 10° ESE
SeaSat 1 3.8 16:38:00 10° NNE 16:42:25 34° NW 16:46:50 10° WSW
Cosmos 2322 Rocket 3.8 16:39:32 10° N 16:42:43 15° NNE 16:45:53 10° ENE
ATLAS 2AS CENTAUR R/B 4.1 16:36:09 10° W 16:42:56 31° NNW 16:49:25 10° NE
Cosmos 990 Rocket 4.0 16:38:11 10° NNW 16:43:26 86° ENE 16:48:36 10° SSE
Cosmos 1697 Rocket 2.7 16:40:06 10° NNW 16:45:44 68° ENE 16:51:19 10° SE
FengYun 1-2 T 4.2 16:41:11 10° SSE 16:46:44 69° ENE 16:52:15 10° N
Cosmos 372 Rocket 4.5 16:42:42 10° N 16:47:34 37° ENE 16:52:25 10° SE
Cosmos 1271 Rocket 4.3 16:44:13 10° SW 16:47:54 37° WNW 16:51:39 10° N
Sich 1 3.6 16:45:12 10° N 16:49:09 34° ENE 16:53:04 10° SE
Cosmos 1980 Rocket 2.5 16:44:31 10° NNW 16:49:56 43° NE 16:55:17 10° ESE
NOAA 6 4.1 16:45:05 10° SSE 16:50:07 59° ENE 16:55:11 10° N
Cosmos 1805 Rocket 3.8 16:47:01 10° N 16:51:11 44° ENE 16:55:21 10° SSE
Cosmos 2369 3.8 16:46:17 10° NNW 16:51:56 54° NE 16:57:31 10° SE
Cosmos 2221 2.7 16:47:45 10° SSW 16:52:01 74° W 16:56:21 10° N
CZ-4C R/B 3.1 16:49:25 10° NW 16:56:06 51° NE 17:04:02 10° ESE
USA 234 3.3 16:49:48 10° ESE 16:56:21 90° E 17:02:56 10° WNW
Cosmos 1842 Rocket 3.8 16:52:26 10° SSW 16:56:54 77° W 17:01:25 10° N
Cosmos 1092 Rocket 4.1 16:50:52 10° N 16:57:11 63° ENE 17:03:27 10° SSE
Cosmos 2084 4.2 16:53:46 10° NW 16:58:00 59° SW 17:02:23 10° SSE
NOSS 3-1 (A) 4.3 16:50:55 10° NW 16:58:21 78° SW 17:07:04 10° SSE
USA 306 3.5 16:56:19 10° WNW 17:00:23 43° N 17:03:35 15° ENE
SL-16 R/B 3.4 16:56:42 10° N 17:00:57 21° NE 17:04:15 13° E
Cosmos 1812 4.1 16:58:12 10° SE 17:00:58 19° E 17:02:42 15° NE
ISS -3.8 16:58:24 10° WNW 17:01:49 82° NNE 17:04:59 12° ESE
Meteor 1-25 Rocket 4.1 16:57:19 10° N 17:02:55 77° ENE 17:08:31 10° SSE
NOSS 2-2 (D) 4.2 16:59:04 10° NW 17:03:57 65° NE 17:10:49 10° SE
NOSS 2-2 (E) 4.3 16:59:14 10° NW 17:04:19 76° NE 17:11:30 10° SE
deb Chang Zheng 4 4.4 17:01:58 10° ESE 17:05:39 28° ENE 17:09:20 10° N
SMAP 3.0 17:01:26 10° SSE 17:06:05 80° ENE 17:10:46 10° NNW
Cosmos 2082 Rocket 2.9 17:01:30 10° SSE 17:06:30 33° ESE 17:10:43 14° NE
Meteor PRIRODA 4.5 17:03:14 10° S 17:06:48 53° W 17:10:22 10° NNW
Cosmos 1939 Rocket 2.9 17:03:11 10° SSE 17:07:18 88° E 17:11:25 10° NNW
Cosmos 858 Rocket 4.5 17:03:39 10° NNW 17:08:58 72° ENE 17:14:14 10° SSE
CORIOLIS 4.1 17:03:41 10° SSE 17:09:05 76° ENE 17:14:32 10° NNW
Cosmos 2333 Rocket 4.1 17:09:11 10° N 17:11:03 11° NNE 17:12:25 11° NE
Cosmos 44 Rocket 4.1 17:06:40 10° NNW 17:11:08 32° NE 17:14:23 16° E
CZ-4B DEB 4.1 17:09:57 10° SSE 17:15:27 75° ENE 17:20:57 10° NNW
Cosmos 2278 3.9 17:10:26 10° NNW 17:15:59 48° NE 17:21:29 10° SE
Cosmos 1602 3.6 17:12:35 10° N 17:16:28 82° E 17:20:20 10° SSE
Cosmos 1627 Rocket 4.4 17:12:28 10° N 17:18:41 76° E 17:24:48 10° SSE
USA 307 3.5 17:15:06 10° WNW 17:19:13 43° N 17:21:38 21° ENE
AQUARIUS 4.2 17:15:31 10° SSE 17:20:00 89° WSW 17:24:32 10° NNW
Cosmos 540 Rocket 3.4 17:16:23 10° S 17:21:24 63° ESE 17:26:07 12° NNE
Cosmos 2034 Rocket 4.3 17:16:43 10° SSW 17:22:50 69° WNW 17:29:01 10° N
COSMO-SKYMED 1 3.4 17:23:24 19° NE 17:25:39 30° E 17:29:30 10° SSE
ARGOS 3.5 17:20:36 10° SE 17:25:40 43° ENE 17:30:45 10° N
Cosmos 2279 Rocket 4.3 17:20:47 10° SSE 17:26:35 44° E 17:32:24 10° NNE
COSMOS 2406 3.2 17:21:20 10° SSW 17:27:03 73° ESE 17:32:10 13° NNE
Cosmos 1833 Rocket 2.7 17:22:44 10° SSW 17:28:21 88° WNW 17:33:42 12° NNE
Meteor 2-21 4.3 17:23:33 10° N 17:29:42 81° E 17:35:44 10° SSE
Cosmos 1782 2.7 17:25:55 10° S 17:29:53 66° E 17:33:48 10° NNE
ATLAS 5 CENTAUR R/B 2.8 17:22:51 10° NW 17:31:31 44° NNE 17:33:08 27° ENE
Cosmos 1633 Rocket 3.3 17:30:09 10° N 17:34:23 45° ENE 17:38:35 10° SSE
ATLAS CENTAUR R/B 3.8 17:32:21 10° WNW 17:35:04 16° NNW 17:37:49 10° NNE
Cosmos 1818 3.8 17:29:58 10° NNW 17:35:17 47° NE 17:38:50 20° ESE
Cosmos 468 Rocket 4.4 17:30:56 10° SW 17:36:03 65° WNW 17:41:16 10° NNE
Cosmos 2219 Rocket 4.1 17:34:05 10° N 17:36:19 12° NNE 17:36:27 12° NNE
YAOGAN 1 3.9 17:39:35 21° NNE 17:39:35 21° NNE 17:41:44 10° N
ERBS 3.9 17:37:48 10° WNW 17:40:22 22° N 17:41:01 20° N
GEOS 3 Rocket 4.0 17:37:58 23° E 17:40:46 43° NE 17:45:40 10° NNW
CZ-2D R/B 3.2 17:36:57 10° SSE 17:40:47 83° WSW 17:44:38 10° NNW
USA 308 3.5 17:37:44 10° WNW 17:41:49 43° N 17:43:14 32° NE
Cosmos 1634 Rocket 4.0 17:37:08 10° S 17:43:28 86° E 17:49:50 10° N
SJ-11-01 4.3 17:38:55 10° SSE 17:43:33 56° ENE 17:48:13 10° N
COSMOS 2455 2.8 17:38:19 10° SSW 17:44:17 69° ESE 17:48:14 22° NE
CZ-2C R/B 2.7 17:40:35 13° NNE 17:45:08 50° E 17:50:09 10° S
PAYLOAD B 4.3 17:39:40 10° SSE 17:45:17 82° WSW 17:50:56 10° NNW
Cosmos 1500 3.4 17:42:14 10° NNW 17:45:58 70° W 17:49:40 10° S
Cosmos 2026 Rocket 4.2 17:41:20 10° NNW 17:47:28 72° W 17:53:29 10° S
CZ-4B R/B 3.0 17:42:24 10° SSE 17:47:48 76° ENE 17:53:09 10° NNW
Cosmos 1151 Rocket 3.0 17:44:39 10° S 17:48:54 58° E 17:51:27 23° NNE
Lacrosse 5 rocket 1.4 17:46:00 10° NW 17:49:49 51° NNE 17:50:36 43° ENE
Okean O Rocket 1.5 17:47:27 10° SSE 17:51:51 64° ENE 17:56:17 10° N
CZ-4 R/B 3.7 17:59:39 12° N 17:59:39 12° N 18:00:02 10° N
Cosmos 2208 Rocket 4.3 17:55:01 10° S 18:00:09 47° ESE 18:01:40 37° ENE
Cosmos 1666 Rocket 3.6 17:55:47 10° N 18:00:16 83° W 18:04:40 10° S
CZ-4 R/B 4.3 17:57:03 10° SSE 18:01:10 74° ENE 18:05:19 10° N
Meteor 1-11 Rocket 4.0 17:56:55 10° N 18:02:17 44° ENE 18:05:45 21° SE
Cosmos 1470 Rocket 3.6 17:59:06 10° N 18:03:29 54° ENE 18:07:52 10° SSE
Cosmos 2150 Rocket 4.1 17:58:32 10° NNW 18:03:33 49° ENE 18:04:48 40° E
H-2A R/B 2.5 17:58:54 10° S 18:04:01 63° W 18:09:02 10° NNW
USA 267 3.4 18:01:04 28° NE 18:04:46 69° NNW 18:11:15 10° WSW
Cosmos 1655 Rocket 4.0 17:59:12 10° N 18:05:32 58° ENE 18:11:48 10° SSE
Cosmos 1328 Rocket 3.5 18:02:03 10° S 18:06:25 63° E 18:07:30 47° NE
Cosmos 2360 Rocket 3.3 18:03:07 10° NNW 18:07:10 27° NNE 18:07:10 27° NNE
Landsat 5 3.5 18:08:41 53° SE 18:08:41 53° SE 18:12:14 10° S
USA 305 3.2 18:04:25 10° WNW 18:08:33 49° NNE 18:08:46 48° NNE
SKYMED 2 3.5 18:12:01 34° NNE 18:13:54 89° SE 18:18:14 10° SSW
Cosmos 2180 Rocket 4.4 18:08:55 10° S 18:15:15 75° E 18:21:32 10° NNE
Cosmos 1666 3.2 18:11:46 10° NNW 18:15:26 58° W 18:19:05 10° S
Cosmos 841 Rocket 3.8 18:10:29 10° SW 18:15:35 63° WNW 18:18:54 22° NNE
Feng Yun 1-1 Rocket 4.2 18:11:22 10° SSE 18:17:16 73° ENE 18:23:07 10° NNW
Meteor 2-8 Rocket 4.3 18:12:41 10° S 18:18:49 77° E 18:25:01 10° NNE
ATLAS CENTAUR R/B 2.5 18:11:48 10° WSW 18:19:48 62° NW 18:20:43 49° NNE
Cosmos 1125 Rocket 3.4 18:16:29 10° NNW 18:21:42 62° ENE 18:22:14 59° E
Cosmos 2322 Rocket 2.4 18:22:35 10° NNW 18:27:49 51° NE 18:27:49 51° NE
Cosmos 1980 Rocket 3.6 18:28:43 10° NW 18:33:54 38° WSW 18:39:01 10° S
SL-08 RB Rocket 3.9 18:30:31 10° S 18:35:09 72° WSW 18:39:46 10° NNW
ATLAS 2AS CENTAUR R/B 3.9 18:29:54 10° NW 18:36:12 27° N 18:37:27 26° NNE
Cosmos 1812 4.1 18:32:51 10° SW 18:36:26 37° WNW 18:37:47 28° NNW
ISS -1.7 18:35:29 10° W 18:37:59 26° SW 18:37:59 26° SW
USA 306 3.8 18:36:31 10° WNW 18:39:35 42° NW 18:39:35 42° NW
CZ-4C R/B 3.5 18:37:54 10° NW 18:45:00 57° WSW 18:53:12 10° SSE
SL-16 R/B 2.0 18:40:13 10° NNW 18:45:56 85° ENE 18:46:11 81° ESE
Cosmos 2082 Rocket 3.0 18:44:55 10° SW 18:50:24 48° NW 18:52:35 33° N
Cosmos 44 Rocket 3.7 18:48:07 10° NW 18:52:57 56° WSW 18:53:10 56° SW
Cosmos 2333 Rocket 3.8 18:52:02 10° NNW 18:54:26 22° N 18:54:26 22° N
USA 307 4.5 18:55:18 10° WNW 18:57:40 31° NW 18:57:40 31° NW
COSMO-SKYMED 1 4.2 19:00:37 27° NW 19:01:49 32° WNW 19:05:41 10° SW
GEOS 3 Rocket 4.4 19:19:06 49° WSW 19:19:06 49° WSW 19:23:50 10° NW
Cosmos 2219 Rocket 4.2 19:16:41 10° NNW 19:18:11 18° N 19:18:11 18° N
CZ-2C R/B 4.4 19:22:06 16° NNW 19:25:11 27° WNW 19:29:29 10° WSW
Okean O Rocket 4.4 19:25:50 10° SW 19:28:38 16° W 19:31:27 10° NW
Lacrosse 5 rocket 4.1 19:25:09 10° WNW 19:26:12 17° WNW 19:26:12 17° WNW
COSMOS 2455 4.2 19:25:20 10° W 19:30:42 32° NW 19:31:23 31° NNW
BREEZE-M DEB (TANK) 4.4 19:26:59 10° SW 19:44:57 68° SSW 19:44:57 68° SSW
USA 267 4.1 19:48:25 42° NNW 19:48:25 42° NNW 19:53:28 10° WNW
Cosmos 2360 Rocket 4.1 19:46:48 10° NNW 19:48:57 24° NW 19:48:57 24° NW
Cosmos 2322 Rocket 4.3 20:07:02 10° NW 20:09:40 23° WNW 20:09:40 23° WNW
ATLAS 2AS CENTAUR R/B 4.5 20:21:47 10° NW 20:24:52 25° NNW 20:24:52 25° NNW
